Dewpoint
30 31 32 34 50 61 66 66 66 65 65 65 65 66 66 66 66 66 66 67 66 66 66 65 64 64 64 62 60 58 57 54
52 59 57 41 41 61 65 66 66 65 65 66 65 64 65 65 66 66 66 67 66 66 65 64 64 64 63 62 59 56 53 55
56 58 58 58 57 60 65 66 66 66 65 66 64 64 61 60 60 60 63 66 66 65 65 63 63 61 59 59 57 54 54 55
55 57 57 58 59 60 63 65 66 66 64 61 60 60 59 58 58 57 57 60 62 62 62 62 61 60 58 57 56 56 53 54
53 53 55 58 59 61 61 62 62 61 61 62 61 62 61 59 57 55 55 55 57 57 57 58 59 58 56 56 55 56 55 53
52 53 53 55 60 61 61 61 60 59 60 60 60 58 56 55 54 53 54 54 54 54 55 57 57 56 56 55 56 56 56 54
52 52 52 53 59 59 61 60 60 58 58 58 58 58 55 54 52 53 52 52 51 52 52 53 53 53 54 55 55 54 54 54
51 51 51 50 53 56 59 59 58 59 58 59 59 57 56 56 54 54 50 49 50 51 52 52 53 53 53 53 53 54 53 53
50 52 52 51 51 53 57 57 55 55 56 55 54 55 53 53 52 51 50 50 50 50 50 51 50 51 51 52 51 50 51 50
49 52 52 52 52 52 53 57 55 55 54 53 53 52 52 51 50 50 50 50 50 50 50 49 49 49 49 48 48 46 48 48
48 52 53 53 52 52 51 52 54 53 51 52 52 51 50 50 49 48 48 49 49 49 48 48 47 47 47 47 46 46 46 45
48 50 53 53 52 51 51 51 51 52 52 51 50 50 49 49 48 48 48 48 48 48 47 46 46 45 45 44 44 44 44 43
45 48 51 53 52 51 51 50 50 50 50 50 50 50 49 48 48 47 47 47 47 46 46 46 45 44 44 43 43 43 42 41
49 51 52 52 52 54 52 52 50 50 49 50 49 49 48 47 47 47 47 46 46 45 45 44 43 42 41 41 41 40 40 39
46 46 48 49 50 51 52 52 51 50 50 50 49 48 48 47 47 46 46 46 45 44 44 43 43 41 40 40 39 39 38 37
39 42 45 46 47 48 49 50 51 52 51 50 49 49 48 48 47 46 46 46 45 44 44 43 42 41 40 39 38 37 36 34
31 34 37 38 40 44 47 48 49 50 52 50 50 48 48 48 47 46 46 46 45 44 43 42 40 40 38 38 37 35 34 32
27 28 30 33 36 40 39 43 47 48 48 49 50 49 48 48 47 47 46 45 44 43 43 41 40 40 37 37 36 35 33 32
28 26 26 28 32 33 35 38 41 43 44 46 47 48 48 48 47 46 46 46 43 43 42 40 39 37 37 37 35 34 32 31
Lifted_Index
5 5 5 5 4 1 -2 -2 -2 -2 -2 -2 -1 -0 -0 -1 -1 -2 -2 -2 -1 -1 -1 -2 -2 -3 -4 -4 -3 -2 -1 -1
4 4 4 4 4 1 -1 -2 -2 -2 -2 -2 -2 -1 -1 -1 -2 -2 -2 -2 -1 -1 -1 -2 -2 -3 -4 -4 -3 -2 -2 -1
3 2 3 3 3 1 -1 -2 -2 -2 -2 -2 -2 -1 -1 -2 -3 -3 -3 -2 -2 -2 -2 -2 -3 -3 -3 -3 -3 -2 -2 -2
2 2 1 2 2 1 -0 -2 -2 -2 -2 -2 -2 -2 -2 -3 -3 -3 -3 -3 -3 -3 -3 -3 -3 -3 -3 -3 -3 -2 -2 -2
3 2 1 0 0 0 -0 -1 -2 -2 -2 -3 -3 -2 -2 -2 -3 -3 -3 -3 -3 -3 -3 -3 -3 -3 -3 -2 -2 -2 -2 -2
4 3 1 0 -1 -1 -1 -1 -1 -2 -2 -3 -3 -3 -3 -2 -3 -3 -3 -3 -3 -3 -3 -3 -3 -3 -3 -2 -2 -2 -2 -2
4 4 3 1 -0 -2 -2 -2 -2 -2 -3 -3 -3 -3 -3 -3 -3 -3 -3 -3 -3 -2 -2 -2 -3 -3 -2 -2 -2 -2 -2 -2
4 4 4 3 1 -1 -2 -3 -3 -3 -3 -3 -3 -4 -4 -3 -3 -3 -3 -2 -2 -2 -2 -2 -2 -2 -2 -1 -1 -0 0 0
4 4 4 4 3 1 -0 -2 -2 -3 -3 -4 -4 -4 -4 -3 -3 -3 -2 -2 -2 -2 -2 -2 -1 -0 0 0 1 1 2 4
4 3 3 2 2 2 2 1 -0 -1 -2 -2 -3 -3 -2 -2 -2 -1 -1 -1 -1 -1 -1 -1 0 1 2 2 2 3 4 5
3 3 2 1 1 2 2 2 1 1 1 0 0 -0 -1 -0 -0 -0 -0 -0 -0 0 0 0 1 2 3 3 3 4 4 5
4 3 2 1 1 1 1 1 1 1 2 2 2 1 1 1 1 1 1 1 0 0 0 0 1 2 3 4 4 4 5 5
5 4 2 1 0 -0 -0 -0 -0 0 1 1 2 2 2 2 2 2 1 1 1 1 1 1 1 2 3 4 4 5 5 5
6 5 3 1 0 -0 -1 -1 -0 -0 -0 0 1 2 3 3 3 2 2 2 2 1 1 1 2 2 3 4 4 4 5 5
5 4 3 1 0 -0 -0 -0 -0 0 0 0 1 2 3 3 3 3 3 2 2 2 1 1 2 3 3 4 4 4 5 5
4 3 2 1 0 -0 0 1 1 1 2 2 2 3 3 3 3 3 3 3 2 2 2 2 2 3 3 4 4 5 5 5
4 3 2 1 1 1 2 3 3 4 4 4 4 4 4 4 3 3 2 2 2 2 2 2 2 3 3 4 4 5 5 5
4 4 3 3 3 4 4 6 7 7 7 7 6 6 5 5 4 3 2 2 2 2 2 3 2 2 3 4 4 5 5 6
5 5 5 5 5 6 7 9 10 10 9 8 8 7 6 5 4 3 2 2 2 2 2 2 2 2 3 3 4 5 6 6